This is the latest recevied weather packets stored in our database for station/object VE7THZ. If no packets are shown the sender has not sent any weather packets the latest 10 day(s).
| Time | Temp. | Humidity | Pressure | Rain* | Wind** | Luminosity | Snow |
|---|---|---|---|---|---|---|---|
| 1777324061 | 16.67° C | 23% | 1010 hPa | 0 mm | - | - | - |
| 1777323483 | 16.67° C | 24% | 1010.2 hPa | 0 mm | - | - | - |
| 1777322850 | 16.11° C | 28% | 1010.3 hPa | 0 mm | - | - | - |
| 1777322232 | 15° C | 28% | 1010.3 hPa | 0 mm | - | - | - |
| 1777321625 | 13.89° C | 26% | 1010.4 hPa | 0 mm | - | - | - |
| 1777321003 | 14.44° C | 26% | 1010.7 hPa | 0 mm | - | - | - |
| 1777320374 | 13.33° C | 29% | 1010.7 hPa | 0 mm | - | - | - |
| 1777319793 | 13.33° C | 29% | 1010.8 hPa | 0 mm | - | - | - |
| 1777319190 | 12.78° C | 30% | 1011 hPa | 0 mm | - | - | - |
| 1777318560 | 12.22° C | 31% | 1011.2 hPa | 0 mm | - | - | - |
| 1777317959 | 11.67° C | 36% | 1011.3 hPa | 0 mm | - | - | - |
| 1777317344 | 11.67° C | 31% | 1011.5 hPa | 0 mm | - | - | - |
| 1777316716 | 11.67° C | 34% | 1011.5 hPa | 0 mm | - | - | - |
| 1777316102 | 11.11° C | 37% | 1011.7 hPa | 0 mm | - | - | - |
| 1777315477 | 11.11° C | 32% | 1011.9 hPa | 0 mm | - | - | - |
| 1777314851 | 10.56° C | 35% | 1012 hPa | 0 mm | - | - | - |
| 1777314255 | 10.56° C | 34% | 1012.1 hPa | 0 mm | - | - | - |
| 1777313627 | 8.89° C | 36% | 1012.2 hPa | 0 mm | - | - | - |
| 1777313028 | 8.33° C | 40% | 1012.2 hPa | 0 mm | - | - | - |
| 1777312408 | 8.33° C | 38% | 1012.4 hPa | 0 mm | - | - | - |
| 1777311829 | 8.89° C | 35% | 1012.3 hPa | 0 mm | - | - | - |
| 1777311254 | 9.44° C | 35% | 1012.5 hPa | 0 mm | - | - | - |
| 1777310670 | 9.44° C | 32% | 1012.4 hPa | 0 mm | - | - | - |
| 1777310048 | 10° C | 31% | 1012.6 hPa | 0 mm | - | - | - |
| 1777309437 | 10.56° C | 33% | 1012.6 hPa | 0 mm | - | - | - |
* Rain latest hour (hover to see other rain measurements)
** Current wind speed in m/s (hover to see current wind gust speed)